2018-04-25T00:00:00Z,112.0,19.8,14.7,114.0
2018-04-25T00:01:00Z,111.0,19.3,14.6,114.0
2018-04-25T00:02:00Z,111.0,19.6,14.9,114.0
2018-04-25T00:03:00Z,111.0,19.6,14.8,114.0
2018-04-25T00:04:00Z,111.0,19.3,14.8,113.0
2018-04-25T00:05:00Z,111.0,19.4,15.0,113.0
2018-04-25T00:06:00Z,111.0,19.4,14.9,114.0
2018-04-25T00:07:00Z,111.0,19.3,14.7,114.0
2018-04-25T00:08:00Z,111.0,19.4,14.8,114.0
2018-04-25T00:09:00Z,111.0,19.5,14.9,114.0
2018-04-25T00:10:00Z,111.0,19.6,14.7,113.0
2018-04-25T00:11:00Z,111.0,19.9,14.6,114.0
2018-04-25T00:12:00Z,111.0,19.7,14.8,113.0
2018-04-25T00:13:00Z,111.0,19.8,14.7,114.0
2018-04-25T00:14:00Z,111.0,20.2,14.7,114.0
2018-04-25T00:15:00Z,111.0,20.4,14.7,113.0
2018-04-25T00:16:00Z,110.0,20.0,14.5,113.0
2018-04-25T00:17:00Z,110.0,19.9,14.5,113.0
2018-04-25T00:18:00Z,110.0,19.7,14.5,113.0
2018-04-25T00:19:00Z,110.0,19.8,14.5,113.0
2018-04-25T00:20:00Z,110.0,19.8,14.5,113.0
2018-04-25T00:21:00Z,110.0,19.6,14.6,113.0
2018-04-25T00:22:00Z,110.0,19.6,14.5,113.0
2018-04-25T00:23:00Z,110.0,19.8,14.7,113.0
2018-04-25T00:24:00Z,110.0,19.7,14.6,112.0
2018-04-25T00:25:00Z,110.0,19.7,14.6,112.0
2018-04-25T00:26:00Z,109.0,19.7,14.9,112.0
2018-04-25T00:27:00Z,109.0,19.9,14.5,112.0
2018-04-25T00:28:00Z,109.0,19.7,14.7,112.0
2018-04-25T00:29:00Z,109.0,20.0,14.7,112.0
2018-04-25T00:30:00Z,109.0,19.9,14.4,112.0
2018-04-25T00:31:00Z,109.0,20.2,14.6,112.0
2018-04-25T00:32:00Z,108.0,20.2,14.2,111.0
2018-04-25T00:33:00Z,108.0,20.0,14.3,111.0
2018-04-25T00:34:00Z,108.0,20.1,14.3,111.0
2018-04-25T00:35:00Z,108.0,20.0,14.4,111.0
2018-04-25T00:36:00Z,108.0,20.0,14.4,111.0
2018-04-25T00:37:00Z,108.0,20.3,14.5,111.0
2018-04-25T00:38:00Z,108.0,20.5,14.4,111.0
2018-04-25T00:39:00Z,108.0,21.0,14.4,111.0
2018-04-25T00:40:00Z,108.0,21.1,14.4,111.0
2018-04-25T00:41:00Z,108.0,21.1,14.4,111.0
2018-04-25T00:42:00Z,107.0,20.8,13.9,110.0
2018-04-25T00:43:00Z,107.0,20.6,13.7,109.0
2018-04-25T00:44:00Z,106.0,20.5,13.7,109.0
2018-04-25T00:45:00Z,106.0,20.6,13.6,109.0
2018-04-25T00:46:00Z,106.0,20.6,13.5,109.0
2018-04-25T00:47:00Z,106.0,20.4,13.3,109.0
2018-04-25T00:48:00Z,106.0,20.3,13.3,109.0
2018-04-25T00:49:00Z,106.0,20.4,13.2,109.0
2018-04-25T00:50:00Z,106.0,20.6,13.3,109.0
2018-04-25T00:51:00Z,105.0,20.8,13.3,108.0
2018-04-25T00:52:00Z,105.0,21.0,13.3,108.0
2018-04-25T00:53:00Z,105.0,20.8,13.0,107.0
2018-04-25T00:54:00Z,104.0,21.1,12.8,107.0
2018-04-25T00:55:00Z,104.0,20.8,12.8,107.0
2018-04-25T00:56:00Z,104.0,21.1,13.1,107.0
2018-04-25T00:57:00Z,104.0,20.8,13.0,107.0
2018-04-25T00:58:00Z,104.0,20.8,13.1,107.0
2018-04-25T00:59:00Z,104.0,20.8,13.0,107.0
2018-04-25T01:00:00Z,104.0,20.9,13.1,107.0
2018-04-25T01:01:00Z,104.0,21.0,13.1,107.0
2018-04-25T01:02:00Z,104.0,21.1,13.2,107.0
2018-04-25T01:03:00Z,104.0,21.2,13.1,107.0
2018-04-25T01:04:00Z,104.0,21.1,13.1,107.0
2018-04-25T01:05:00Z,104.0,21.5,13.0,107.0
2018-04-25T01:06:00Z,104.0,21.2,13.1,107.0
2018-04-25T01:07:00Z,104.0,21.5,12.9,107.0
2018-04-25T01:08:00Z,103.0,21.1,12.8,106.0
2018-04-25T01:09:00Z,103.0,21.9,12.7,106.0
2018-04-25T01:10:00Z,103.0,21.0,13.0,106.0
2018-04-25T01:11:00Z,103.0,22.2,12.7,106.0
2018-04-25T01:12:00Z,103.0,21.4,13.1,106.0
2018-04-25T01:13:00Z,103.0,22.2,12.5,106.0
2018-04-25T01:14:00Z,103.0,21.6,13.1,106.0
2018-04-25T01:15:00Z,102.0,22.9,12.8,106.0
2018-04-25T01:16:00Z,102.0,21.3,13.0,105.0
2018-04-25T01:17:00Z,102.0,22.3,12.5,105.0
2018-04-25T01:18:00Z,102.0,21.8,12.7,105.0
2018-04-25T01:19:00Z,102.0,21.9,12.3,105.0
2018-04-25T01:20:00Z,101.0,21.5,12.4,104.0
2018-04-25T01:21:00Z,101.0,22.0,12.2,104.0
2018-04-25T01:22:00Z,101.0,21.8,12.4,104.0
2018-04-25T01:23:00Z,100.0,22.1,12.3,103.0
2018-04-25T01:24:00Z,100.0,21.7,12.4,103.0
2018-04-25T01:25:00Z,100.0,21.9,12.4,103.0
2018-04-25T01:26:00Z,100.0,21.9,12.4,103.0
2018-04-25T01:27:00Z,99.0,21.9,12.2,103.0
2018-04-25T01:28:00Z,99.0,21.9,12.1,102.0
2018-04-25T01:29:00Z,99.0,21.8,12.2,102.0
2018-04-25T01:30:00Z,99.0,21.7,12.4,102.0
2018-04-25T01:31:00Z,98.0,21.7,12.4,102.0
2018-04-25T01:32:00Z,98.0,21.5,12.5,101.0
2018-04-25T01:33:00Z,98.0,21.5,12.2,101.0
2018-04-25T01:34:00Z,98.0,21.6,12.2,101.0
2018-04-25T01:35:00Z,97.0,21.5,12.4,101.0
2018-04-25T01:36:00Z,97.0,21.4,12.7,101.0
2018-04-25T01:37:00Z,97.0,21.3,12.7,100.0
2018-04-25T01:38:00Z,97.0,21.2,12.6,100.0
2018-04-25T01:39:00Z,97.0,20.8,12.4,100.0
2018-04-25T01:40:00Z,97.0,21.2,12.5,99.7
2018-04-25T01:41:00Z,96.0,21.1,12.5,99.2
2018-04-25T01:42:00Z,96.0,21.1,12.4,98.9
2018-04-25T01:43:00Z,96.0,20.9,12.3,98.9
2018-04-25T01:44:00Z,96.0,21.0,12.3,98.7
2018-04-25T01:45:00Z,96.0,20.8,12.1,98.6
2018-04-25T01:46:00Z,96.0,20.6,12.0,98.7
2018-04-25T01:47:00Z,96.0,20.6,12.1,98.6
2018-04-25T01:48:00Z,96.0,20.5,12.3,98.6
2018-04-25T01:49:00Z,96.0,20.5,12.3,98.6
2018-04-25T01:50:00Z,96.0,20.5,12.2,98.7
2018-04-25T01:51:00Z,96.0,20.7,12.3,98.7
2018-04-25T01:52:00Z,96.0,20.6,12.4,98.7
2018-04-25T01:53:00Z,96.0,20.6,12.4,98.6
2018-04-25T01:54:00Z,95.0,20.7,12.3,98.3
2018-04-25T01:55:00Z,95.0,21.0,12.4,98.2
2018-04-25T01:56:00Z,95.0,21.1,12.5,98.2
2018-04-25T01:57:00Z,95.0,20.9,12.3,98.2
2018-04-25T01:58:00Z,95.0,20.5,12.5,97.8
2018-04-25T01:59:00Z,94.0,20.9,12.3,97.2
2018-04-25T02:00:00Z,94.0,21.2,12.5,97.4
2018-04-25T02:01:00Z,94.0,21.6,12.6,97.2
2018-04-25T02:02:00Z,94.0,21.3,12.7,97.2
2018-04-25T02:03:00Z,93.0,21.5,12.8,96.8
2018-04-25T02:04:00Z,93.0,21.4,12.7,96.2
2018-04-25T02:05:00Z,93.0,21.7,12.6,96.0
2018-04-25T02:06:00Z,92.0,21.7,12.5,95.7
2018-04-25T02:07:00Z,92.0,22.1,12.5,95.3
2018-04-25T02:08:00Z,91.0,21.9,12.3,94.4
2018-04-25T02:09:00Z,91.0,21.9,12.1,94.0
2018-04-25T02:10:00Z,90.0,21.9,12.0,93.6
2018-04-25T02:11:00Z,90.0,22.0,12.1,93.5
2018-04-25T02:12:00Z,90.0,21.8,12.1,93.2
2018-04-25T02:13:00Z,89.0,21.9,11.8,92.6
2018-04-25T02:14:00Z,89.0,22.4,12.0,92.3
2018-04-25T02:15:00Z,88.0,22.5,11.8,92.1
2018-04-25T02:16:00Z,89.0,22.8,12.1,92.3
2018-04-25T02:17:00Z,88.0,22.6,12.1,91.9
2018-04-25T02:18:00Z,88.0,22.5,11.8,91.7
2018-04-25T02:19:00Z,88.0,22.6,11.8,91.8
2018-04-25T02:20:00Z,88.0,22.5,11.9,91.8
2018-04-25T02:21:00Z,88.0,22.7,11.8,91.8
2018-04-25T02:22:00Z,88.0,22.8,11.6,91.6
2018-04-25T02:23:00Z,88.0,22.8,11.6,91.6
2018-04-25T02:24:00Z,88.0,22.8,11.5,91.5
2018-04-25T02:25:00Z,88.0,22.8,11.4,91.4
2018-04-25T02:26:00Z,88.0,23.0,11.5,91.5
2018-04-25T02:27:00Z,88.0,23.1,11.4,91.4
2018-04-25T02:28:00Z,88.0,23.1,11.4,91.6
2018-04-25T02:29:00Z,88.0,23.0,11.4,91.7
2018-04-25T02:30:00Z,88.0,23.1,11.4,91.5
2018-04-25T02:31:00Z,88.0,23.3,11.4,91.4
2018-04-25T02:32:00Z,88.0,23.4,11.5,91.4
2018-04-25T02:33:00Z,87.0,23.4,11.5,91.1
2018-04-25T02:34:00Z,87.0,23.3,11.4,90.9
2018-04-25T02:35:00Z,87.0,23.2,11.4,90.9
2018-04-25T02:36:00Z,87.0,23.5,11.2,90.7
2018-04-25T02:37:00Z,87.0,23.4,11.0,90.7
2018-04-25T02:38:00Z,87.0,23.3,10.7,90.4
2018-04-25T02:39:00Z,86.0,23.2,10.6,90.1
2018-04-25T02:40:00Z,86.0,23.5,10.4,90.0
2018-04-25T02:41:00Z,86.0,23.6,10.3,90.0
2018-04-25T02:42:00Z,86.0,23.4,10.2,89.8
2018-04-25T02:43:00Z,86.0,23.5,9.97,89.8
2018-04-25T02:44:00Z,86.0,23.7,9.85,89.5
2018-04-25T02:45:00Z,85.0,23.8,9.69,89.1
2018-04-25T02:46:00Z,85.0,23.9,9.64,88.8
2018-04-25T02:47:00Z,84.0,23.6,9.6,88.2
2018-04-25T02:48:00Z,84.0,23.7,9.31,87.7
2018-04-25T02:49:00Z,83.0,24.0,9.35,87.4
2018-04-25T02:50:00Z,83.0,24.0,9.45,86.9
2018-04-25T02:51:00Z,82.0,23.9,9.37,85.9
2018-04-25T02:52:00Z,81.0,23.9,9.5,85.3
2018-04-25T02:53:00Z,81.0,24.0,9.42,84.9
2018-04-25T02:54:00Z,81.0,24.2,9.63,84.7
2018-04-25T02:55:00Z,80.0,24.3,9.93,84.4
2018-04-25T02:56:00Z,79.0,24.2,10.1,83.7
2018-04-25T02:57:00Z,79.0,23.9,10.4,83.2
2018-04-25T02:58:00Z,78.0,24.1,10.5,82.8
2018-04-25T02:59:00Z,78.0,24.2,10.6,82.0
2018-04-25T03:00:00Z,77.0,24.2,10.8,81.8
2018-04-25T03:01:00Z,77.0,24.0,10.7,81.4
2018-04-25T03:02:00Z,77.0,24.1,10.7,81.5
2018-04-25T03:03:00Z,77.0,24.1,10.6,81.6
2018-04-25T03:04:00Z,76.0,24.0,10.4,80.7
2018-04-25T03:05:00Z,75.0,24.0,10.3,79.7
2018-04-25T03:06:00Z,75.0,24.0,10.1,79.1
2018-04-25T03:07:00Z,75.0,24.2,10.2,79.5
2018-04-25T03:08:00Z,75.0,24.3,10.4,79.7
2018-04-25T03:09:00Z,75.0,24.2,10.4,79.5
2018-04-25T03:10:00Z,75.0,24.2,10.6,79.3
2018-04-25T03:11:00Z,75.0,24.1,10.5,79.2
2018-04-25T03:12:00Z,74.0,24.1,10.6,78.8
2018-04-25T03:13:00Z,74.0,24.3,10.7,78.6
2018-04-25T03:14:00Z,74.0,24.3,10.7,78.8
2018-04-25T03:15:00Z,74.0,24.3,10.7,78.8
2018-04-25T03:16:00Z,74.0,24.3,10.5,78.8
2018-04-25T03:17:00Z,74.0,24.3,10.6,78.3
2018-04-25T03:18:00Z,74.0,24.1,10.2,78.1
2018-04-25T03:19:00Z,74.0,24.2,10.1,78.3
2018-04-25T03:20:00Z,74.0,24.2,10.2,78.2
2018-04-25T03:21:00Z,73.0,23.9,10.1,77.8
2018-04-25T03:22:00Z,73.0,23.7,9.96,77.1
2018-04-25T03:23:00Z,72.0,23.6,9.9,76.9
2018-04-25T03:24:00Z,72.0,23.6,10.1,76.4
2018-04-25T03:25:00Z,72.0,23.5,9.96,76.0
2018-04-25T03:26:00Z,72.0,23.5,9.77,76.0
2018-04-25T03:27:00Z,72.0,23.3,9.85,76.1
2018-04-25T03:28:00Z,72.0,23.3,9.76,76.3
2018-04-25T03:29:00Z,72.0,23.3,9.68,76.5
2018-04-25T03:30:00Z,73.0,23.1,9.76,77.0
2018-04-25T03:31:00Z,73.0,22.9,9.79,77.4
2018-04-25T03:32:00Z,74.0,22.9,9.87,77.9
2018-04-25T03:33:00Z,74.0,23.0,9.76,77.8
2018-04-25T03:34:00Z,74.0,22.8,9.87,78.0
2018-04-25T03:35:00Z,74.0,23.0,9.85,78.6
2018-04-25T03:36:00Z,75.0,23.0,9.88,78.9
2018-04-25T03:37:00Z,75.0,22.5,9.8,78.9
2018-04-25T03:38:00Z,75.0,22.8,9.57,78.8
2018-04-25T03:39:00Z,75.0,22.7,9.57,78.9
2018-04-25T03:40:00Z,75.0,22.7,9.49,78.8
2018-04-25T03:41:00Z,75.0,22.2,9.63,78.6
2018-04-25T03:42:00Z,75.0,22.5,9.34,78.4
2018-04-25T03:43:00Z,75.0,23.2,9.39,79.5
2018-04-25T03:44:00Z,76.0,22.7,9.65,79.6
2018-04-25T03:45:00Z,75.0,22.3,9.57,79.3
2018-04-25T03:46:00Z,75.0,22.1,9.69,79.3
2018-04-25T03:47:00Z,76.0,22.2,9.98,79.7
2018-04-25T03:48:00Z,76.0,22.3,10.3,79.8
2018-04-25T03:49:00Z,76.0,22.3,10.4,79.9
2018-04-25T03:50:00Z,76.0,22.4,10.5,80.2
2018-04-25T03:51:00Z,77.0,22.5,10.5,80.5
2018-04-25T03:52:00Z,76.0,22.1,10.6,80.4
2018-04-25T03:53:00Z,76.0,21.9,10.6,79.8
2018-04-25T03:54:00Z,76.0,21.7,10.5,79.8
2018-04-25T03:55:00Z,76.0,21.7,10.8,80.0
2018-04-25T03:56:00Z,77.0,21.4,10.7,80.4
2018-04-25T03:57:00Z,77.0,21.2,10.5,80.5
2018-04-25T03:58:00Z,78.0,20.7,10.4,81.0
2018-04-25T03:59:00Z,78.0,20.8,10.3,81.2
2018-04-25T04:00:00Z,78.0,20.6,10.4,81.6
2018-04-25T04:01:00Z,78.0,20.3,10.4,81.6
2018-04-25T04:02:00Z,79.0,20.8,10.2,82.1
2018-04-25T04:03:00Z,79.0,20.6,10.2,81.9
2018-04-25T04:04:00Z,78.0,20.5,10.2,81.6
2018-04-25T04:05:00Z,78.0,20.9,10.2,81.9
2018-04-25T04:06:00Z,78.0,20.9,9.99,81.6
2018-04-25T04:07:00Z,78.0,20.9,10.2,81.4
2018-04-25T04:08:00Z,78.0,21.0,10.0,81.5
2018-04-25T04:09:00Z,78.0,21.2,9.91,81.4
2018-04-25T04:10:00Z,78.0,21.2,9.92,81.6
2018-04-25T04:11:00Z,78.0,21.8,9.63,81.7
2018-04-25T04:12:00Z,78.0,21.9,9.8,81.8
2018-04-25T04:13:00Z,78.0,22.4,9.6,82.1
2018-04-25T04:14:00Z,78.0,22.5,9.73,82.2
2018-04-25T04:15:00Z,78.0,22.7,9.68,82.3
2018-04-25T04:16:00Z,79.0,22.8,10.1,82.5
2018-04-25T04:17:00Z,79.0,23.1,9.97,82.6
2018-04-25T04:18:00Z,79.0,23.3,10.1,82.8
2018-04-25T04:19:00Z,79.0,23.4,10.1,83.1
2018-04-25T04:20:00Z,79.0,23.6,9.9,83.3
2018-04-25T04:21:00Z,79.0,23.4,10.1,83.3
2018-04-25T04:22:00Z,79.0,23.6,9.85,83.4
2018-04-25T04:23:00Z,79.0,23.8,9.79,83.4
2018-04-25T04:24:00Z,79.0,23.8,9.99,83.3
2018-04-25T04:25:00Z,79.0,24.1,10.1,83.2
2018-04-25T04:26:00Z,79.0,24.2,10.2,83.1
2018-04-25T04:27:00Z,79.0,24.6,10.3,83.5
2018-04-25T04:28:00Z,79.0,24.7,10.4,83.5
2018-04-25T04:29:00Z,79.0,24.7,10.2,83.0
2018-04-25T04:30:00Z,78.0,24.5,10.3,82.3
2018-04-25T04:31:00Z,77.0,24.4,10.2,81.9
2018-04-25T04:32:00Z,77.0,24.6,10.2,81.7
2018-04-25T04:33:00Z,77.0,24.6,10.4,81.6
2018-04-25T04:34:00Z,77.0,25.0,10.3,81.8
2018-04-25T04:35:00Z,77.0,25.0,10.4,81.7
2018-04-25T04:36:00Z,77.0,24.9,9.93,81.4
2018-04-25T04:37:00Z,76.0,24.9,9.81,81.1
2018-04-25T04:38:00Z,76.0,24.8,9.89,80.7
2018-04-25T04:39:00Z,76.0,25.0,9.87,80.6
2018-04-25T04:40:00Z,76.0,25.0,9.93,80.6
2018-04-25T04:41:00Z,76.0,25.1,9.95,80.4
2018-04-25T04:42:00Z,75.0,25.2,9.84,80.2
2018-04-25T04:43:00Z,76.0,25.4,9.99,80.4
2018-04-25T04:44:00Z,75.0,25.6,9.99,80.3
2018-04-25T04:45:00Z,75.0,25.7,9.99,80.2
2018-04-25T04:46:00Z,75.0,25.9,9.95,80.2
2018-04-25T04:47:00Z,76.0,26.0,9.86,80.5
2018-04-25T04:48:00Z,76.0,25.9,9.86,80.6
2018-04-25T04:49:00Z,75.0,26.1,9.81,80.4
2018-04-25T04:50:00Z,75.0,25.9,9.89,80.2
2018-04-25T04:51:00Z,75.0,26.0,9.96,80.4
2018-04-25T04:52:00Z,75.0,26.3,10.0,80.5
2018-04-25T04:53:00Z,75.0,26.3,10.0,80.4
2018-04-25T04:54:00Z,75.0,26.4,10.2,80.2
2018-04-25T04:55:00Z,75.0,26.4,10.3,80.1
2018-04-25T04:56:00Z,75.0,26.3,10.5,79.9
2018-04-25T04:57:00Z,75.0,26.5,10.4,79.9
2018-04-25T04:58:00Z,75.0,26.6,10.4,79.9
2018-04-25T04:59:00Z,74.0,26.5,10.5,79.8
2018-04-25T05:00:00Z,74.0,26.6,10.6,79.7
2018-04-25T05:01:00Z,75.0,26.7,10.6,80.1
2018-04-25T05:02:00Z,75.0,26.7,10.7,80.3
2018-04-25T05:03:00Z,75.0,26.8,10.8,80.4
2018-04-25T05:04:00Z,75.0,26.3,11.0,79.9
2018-04-25T05:05:00Z,74.0,26.4,10.8,79.5
2018-04-25T05:06:00Z,74.0,26.3,10.9,79.5
2018-04-25T05:07:00Z,74.0,26.5,11.1,79.6
2018-04-25T05:08:00Z,74.0,26.8,10.9,79.4
2018-04-25T05:09:00Z,69.0,25.3,10.4,74.5
2018-04-25T05:10:00Z,66.0,25.0,10.1,71.5
2018-04-25T05:11:00Z,67.0,25.7,10.2,72.5
2018-04-25T05:12:00Z,68.0,25.9,10.3,73.2
2018-04-25T05:13:00Z,68.0,26.1,9.58,73.5
2018-04-25T05:14:00Z,69.0,26.4,9.68,74.9
2018-04-25T05:15:00Z,70.0,26.4,9.01,75.0
2018-04-25T05:16:00Z,70.0,26.3,9.03,75.3
2018-04-25T05:17:00Z,71.0,26.8,8.88,76.5
2018-04-25T05:18:00Z,72.0,26.9,8.65,76.9
2018-04-25T05:19:00Z,73.0,27.3,8.7,78.7
2018-04-25T05:20:00Z,73.0,27.0,8.55,78.6
2018-04-25T05:21:00Z,72.0,26.9,8.42,77.1
2018-04-25T05:22:00Z,72.0,26.9,8.58,77.4
2018-04-25T05:23:00Z,72.0,26.8,8.65,77.2
2018-04-25T05:24:00Z,72.0,26.7,8.38,77.0
2018-04-25T05:25:00Z,72.0,26.7,8.68,77.0
2018-04-25T05:26:00Z,71.0,26.9,8.92,76.6
2018-04-25T05:27:00Z,71.0,27.1,9.01,76.8
2018-04-25T05:28:00Z,72.0,27.2,8.91,77.1
2018-04-25T05:29:00Z,72.0,27.4,9.06,77.7
2018-04-25T05:30:00Z,73.0,27.5,9.33,78.2
2018-04-25T05:31:00Z,73.0,27.2,9.43,78.4
2018-04-25T05:32:00Z,73.0,27.0,9.57,78.0
2018-04-25T05:33:00Z,72.0,27.0,10.0,78.0
2018-04-25T05:34:00Z,72.0,27.1,9.88,78.0
2018-04-25T05:35:00Z,73.0,27.3,9.81,78.1
2018-04-25T05:36:00Z,73.0,27.3,9.79,78.6
2018-04-25T05:37:00Z,73.0,27.3,9.72,78.5
2018-04-25T05:38:00Z,73.0,27.6,9.74,78.6
2018-04-25T05:39:00Z,73.0,27.7,9.77,78.5
2018-04-25T05:40:00Z,72.0,27.8,9.73,78.1
2018-04-25T05:41:00Z,72.0,27.8,9.86,77.5
2018-04-25T05:42:00Z,71.0,28.4,9.66,77.1
2018-04-25T05:43:00Z,70.0,28.2,9.58,76.2
2018-04-25T05:44:00Z,69.0,27.9,9.7,74.7
2018-04-25T05:45:00Z,68.0,28.8,9.54,74.3
2018-04-25T05:46:00Z,68.0,28.8,10.1,74.6
2018-04-25T05:47:00Z,68.0,28.7,10.1,74.6
2018-04-25T05:48:00Z,66.0,28.5,10.1,72.3
2018-04-25T05:49:00Z,66.0,28.4,10.5,73.1
2018-04-25T05:50:00Z,62.0,27.3,9.95,68.9
2018-04-25T05:51:00Z,62.0,29.0,10.9,69.5
2018-04-25T05:52:00Z,63.0,28.6,11.2,70.0
2018-04-25T05:53:00Z,60.0,28.6,11.2,67.8
2018-04-25T05:54:00Z,59.0,27.9,11.4,66.1
2018-04-25T05:55:00Z,58.0,28.3,11.7,65.7
2018-04-25T05:56:00Z,57.0,28.4,12.1,64.8
2018-04-25T05:57:00Z,54.0,26.8,11.9,61.5
2018-04-25T05:58:00Z,57.0,29.4,13.2,65.4
2018-04-25T05:59:00Z,59.0,29.6,12.4,67.3
2018-04-25T06:00:00Z,61.0,29.7,12.2,69.0
2018-04-25T06:01:00Z,63.0,29.8,11.8,70.4
2018-04-25T06:02:00Z,63.0,29.4,11.9,71.0
2018-04-25T06:03:00Z,65.0,29.4,11.8,72.1
2018-04-25T06:04:00Z,66.0,29.1,12.0,73.1
2018-04-25T06:05:00Z,66.0,29.2,12.4,73.5
2018-04-25T06:06:00Z,68.0,29.8,12.9,75.5
2018-04-25T06:07:00Z,69.0,29.8,13.1,76.3
2018-04-25T06:08:00Z,68.0,29.0,13.7,75.0
2018-04-25T06:09:00Z,64.0,28.1,14.1,71.0
2018-04-25T06:10:00Z,62.0,28.1,15.3,69.6
2018-04-25T06:11:00Z,60.0,26.6,14.5,67.1
2018-04-25T06:12:00Z,61.0,27.8,13.7,68.8
2018-04-25T06:13:00Z,64.0,27.6,12.9,70.9
2018-04-25T06:14:00Z,68.0,27.5,14.3,74.4
2018-04-25T06:15:00Z,67.0,27.5,15.3,74.5
2018-04-25T06:16:00Z,67.0,27.5,14.6,74.3
2018-04-25T06:17:00Z,68.0,26.6,14.4,74.8
2018-04-25T06:18:00Z,71.0,26.0,15.5,77.6
2018-04-25T06:19:00Z,72.0,25.4,15.5,78.2
2018-04-25T06:20:00Z,73.0,24.9,15.4,78.5
2018-04-25T06:21:00Z,74.0,24.2,15.4,79.2
2018-04-25T06:22:00Z,73.0,24.4,14.4,78.2
2018-04-25T06:23:00Z,73.0,24.7,14.0,77.9
2018-04-25T06:24:00Z,69.0,24.7,14.5,74.9
2018-04-25T06:25:00Z,67.0,24.7,15.3,73.3
2018-04-25T06:26:00Z,69.0,25.2,15.8,75.3
2018-04-25T06:27:00Z,69.0,24.3,15.5,74.8
2018-04-25T06:28:00Z,70.0,24.3,15.2,75.9
2018-04-25T06:29:00Z,72.0,24.6,15.3,77.9
2018-04-25T06:30:00Z,74.0,24.0,15.4,79.4
2018-04-25T06:31:00Z,77.0,24.7,15.4,82.4
2018-04-25T06:32:00Z,79.0,24.3,16.7,84.6
2018-04-25T06:33:00Z,80.0,24.2,16.8,85.0
2018-04-25T06:34:00Z,81.0,23.6,17.2,86.0
2018-04-25T06:35:00Z,81.0,23.2,17.0,86.3
2018-04-25T06:36:00Z,81.0,23.5,16.7,85.9
2018-04-25T06:37:00Z,81.0,23.2,15.8,86.1
2018-04-25T06:38:00Z,81.0,23.2,15.1,85.6
2018-04-25T06:39:00Z,80.0,23.0,14.7,84.2
2018-04-25T06:40:00Z,78.0,23.9,14.8,82.5
2018-04-25T06:41:00Z,77.0,23.9,14.2,81.9
2018-04-25T06:42:00Z,78.0,24.3,14.2,82.9
2018-04-25T06:43:00Z,78.0,24.8,14.0,83.0
2018-04-25T06:44:00Z,78.0,25.1,13.7,83.3
2018-04-25T06:45:00Z,78.0,24.7,13.2,83.3
2018-04-25T06:46:00Z,79.0,24.4,13.3,84.0
2018-04-25T06:47:00Z,80.0,24.5,13.2,84.8
2018-04-25T06:48:00Z,80.0,24.4,13.0,84.7
2018-04-25T06:49:00Z,80.0,24.3,13.1,84.7
2018-04-25T06:50:00Z,80.0,24.1,12.8,84.1
2018-04-25T06:51:00Z,79.0,24.2,12.4,83.3
2018-04-25T06:52:00Z,77.0,24.6,13.2,81.8
2018-04-25T06:53:00Z,78.0,24.3,13.7,83.2
2018-04-25T06:54:00Z,79.0,24.6,13.3,83.6
2018-04-25T06:55:00Z,78.0,24.8,13.3,83.1
2018-04-25T06:56:00Z,78.0,25.0,13.6,82.8
2018-04-25T06:57:00Z,79.0,25.1,13.2,83.7
2018-04-25T06:58:00Z,79.0,25.1,12.7,83.9
2018-04-25T06:59:00Z,79.0,24.9,12.4,83.7
2018-04-25T07:00:00Z,79.0,25.1,12.4,84.0
2018-04-25T07:01:00Z,78.0,24.7,12.4,83.2
2018-04-25T07:02:00Z,76.0,24.4,12.7,80.8
2018-04-25T07:03:00Z,76.0,24.6,12.8,81.1
2018-04-25T07:04:00Z,77.0,24.9,12.9,81.7
2018-04-25T07:05:00Z,78.0,25.1,13.0,82.6
2018-04-25T07:06:00Z,78.0,25.2,13.2,82.7
2018-04-25T07:07:00Z,77.0,25.1,13.1,82.4
2018-04-25T07:08:00Z,77.0,24.9,13.0,82.1
2018-04-25T07:09:00Z,77.0,24.8,13.2,82.4
2018-04-25T07:10:00Z,77.0,25.0,13.2,82.5
2018-04-25T07:11:00Z,78.0,25.0,13.4,82.9
2018-04-25T07:12:00Z,78.0,25.0,13.5,82.8
2018-04-25T07:13:00Z,77.0,24.9,13.5,82.2
2018-04-25T07:14:00Z,77.0,24.7,13.3,81.9
2018-04-25T07:15:00Z,77.0,24.6,13.2,81.5
2018-04-25T07:16:00Z,77.0,24.8,13.3,82.1
2018-04-25T07:17:00Z,77.0,25.1,13.3,82.1
2018-04-25T07:18:00Z,77.0,25.2,13.3,82.0
2018-04-25T07:19:00Z,76.0,25.4,13.3,81.4
2018-04-25T07:20:00Z,76.0,25.6,13.6,81.4
2018-04-25T07:21:00Z,77.0,25.8,13.5,82.2
2018-04-25T07:22:00Z,77.0,25.9,13.5,82.3
2018-04-25T07:23:00Z,77.0,26.0,13.4,82.8
2018-04-25T07:24:00Z,78.0,26.2,13.3,83.1
2018-04-25T07:25:00Z,78.0,26.2,13.2,83.0
2018-04-25T07:26:00Z,77.0,26.4,13.2,82.9
2018-04-25T07:27:00Z,78.0,26.6,13.2,83.2
2018-04-25T07:28:00Z,78.0,26.7,13.1,83.4
2018-04-25T07:29:00Z,78.0,26.8,13.1,83.6
2018-04-25T07:30:00Z,78.0,26.9,13.1,83.5
2018-04-25T07:31:00Z,78.0,27.0,13.0,83.7
2018-04-25T07:32:00Z,78.0,27.1,13.0,84.0
2018-04-25T07:33:00Z,79.0,27.2,13.0,84.2
2018-04-25T07:34:00Z,78.0,27.4,13.1,84.1
2018-04-25T07:35:00Z,78.0,27.5,13.1,84.1
2018-04-25T07:36:00Z,79.0,27.6,13.1,84.3
2018-04-25T07:37:00Z,79.0,27.7,13.1,84.5
2018-04-25T07:38:00Z,79.0,27.9,12.9,84.7
2018-04-25T07:39:00Z,79.0,27.9,12.9,84.6
2018-04-25T07:40:00Z,78.0,27.9,12.9,84.3
2018-04-25T07:41:00Z,79.0,28.0,12.9,84.6
2018-04-25T07:42:00Z,79.0,28.1,12.8,84.9
2018-04-25T07:43:00Z,79.0,28.0,12.8,85.0
2018-04-25T07:44:00Z,79.0,28.1,12.8,84.9
2018-04-25T07:45:00Z,79.0,28.1,12.7,84.7
2018-04-25T07:46:00Z,78.0,28.2,12.8,84.4
2018-04-25T07:47:00Z,79.0,28.4,12.8,84.7
2018-04-25T07:48:00Z,79.0,28.5,12.7,84.9
2018-04-25T07:49:00Z,79.0,28.7,12.8,85.0
2018-04-25T07:50:00Z,79.0,28.9,12.7,85.2
2018-04-25T07:51:00Z,79.0,29.1,12.7,85.2
2018-04-25T07:52:00Z,79.0,29.5,12.7,85.3
2018-04-25T07:53:00Z,79.0,29.6,12.6,85.4
2018-04-25T07:54:00Z,79.0,29.8,12.4,85.4
2018-04-25T07:55:00Z,79.0,29.7,12.2,85.3
2018-04-25T07:56:00Z,79.0,29.8,12.2,85.1
2018-04-25T07:57:00Z,79.0,29.8,12.2,85.2
2018-04-25T07:58:00Z,79.0,29.9,12.2,85.4
2018-04-25T07:59:00Z,79.0,29.8,12.2,85.4
2018-04-25T08:00:00Z,79.0,29.7,12.2,85.5
2018-04-25T08:01:00Z,79.0,29.5,12.2,85.4
2018-04-25T08:02:00Z,79.0,29.5,12.1,85.2
2018-04-25T08:03:00Z,79.0,29.5,12.1,85.1
2018-04-25T08:04:00Z,79.0,29.6,12.1,84.9
2018-04-25T08:05:00Z,79.0,29.7,12.1,84.8
2018-04-25T08:06:00Z,78.0,29.7,12.0,84.7
2018-04-25T08:07:00Z,78.0,29.8,12.0,84.7
2018-04-25T08:08:00Z,78.0,29.8,12.0,84.6
2018-04-25T08:09:00Z,78.0,29.8,12.0,84.5
2018-04-25T08:10:00Z,78.0,29.7,12.1,84.5
2018-04-25T08:11:00Z,78.0,29.6,12.2,84.4
2018-04-25T08:12:00Z,78.0,29.5,12.2,84.3
2018-04-25T08:13:00Z,78.0,29.5,12.4,84.2
2018-04-25T08:14:00Z,78.0,29.5,12.4,84.1
2018-04-25T08:15:00Z,78.0,29.7,12.7,84.1
2018-04-25T08:16:00Z,78.0,29.7,12.8,84.1
2018-04-25T08:17:00Z,77.0,29.9,12.9,84.1
2018-04-25T08:18:00Z,77.0,30.0,12.9,84.0
2018-04-25T08:19:00Z,77.0,30.0,12.9,84.0
2018-04-25T08:20:00Z,77.0,30.1,12.9,84.0
2018-04-25T08:21:00Z,77.0,30.1,12.9,84.0
2018-04-25T08:22:00Z,77.0,30.2,12.9,84.0
2018-04-25T08:23:00Z,77.0,30.2,12.9,83.9
2018-04-25T08:24:00Z,77.0,30.2,12.9,83.9
2018-04-25T08:25:00Z,77.0,30.3,13.0,83.9
2018-04-25T08:26:00Z,77.0,30.3,13.0,83.9
2018-04-25T08:27:00Z,77.0,30.4,13.1,84.0
2018-04-25T08:28:00Z,77.0,30.2,13.2,84.0
2018-04-25T08:29:00Z,77.0,30.1,13.4,84.1
2018-04-25T08:30:00Z,77.0,29.9,13.5,84.1
2018-04-25T08:31:00Z,77.0,29.7,13.6,84.1
2018-04-25T08:32:00Z,78.0,29.6,13.6,84.1
2018-04-25T08:33:00Z,78.0,29.6,13.6,84.2
2018-04-25T08:34:00Z,78.0,29.5,13.6,84.2
2018-04-25T08:35:00Z,78.0,29.5,13.7,84.3
2018-04-25T08:36:00Z,78.0,29.5,13.7,84.4
2018-04-25T08:37:00Z,78.0,29.6,13.7,84.5
2018-04-25T08:38:00Z,78.0,29.7,13.6,84.5
2018-04-25T08:39:00Z,78.0,29.8,13.6,84.6
2018-04-25T08:40:00Z,78.0,30.0,13.6,84.6
2018-04-25T08:41:00Z,78.0,30.0,13.5,84.7
2018-04-25T08:42:00Z,78.0,30.1,13.4,84.7
2018-04-25T08:43:00Z,78.0,30.3,13.5,84.8
2018-04-25T08:44:00Z,78.0,30.3,13.5,84.8
2018-04-25T08:45:00Z,78.0,30.1,13.5,84.7
2018-04-25T08:46:00Z,78.0,30.0,13.5,84.7
2018-04-25T08:47:00Z,78.0,29.9,13.5,84.8
2018-04-25T08:48:00Z,78.0,29.9,13.2,84.7
2018-04-25T08:49:00Z,78.0,29.7,13.0,84.5
2018-04-25T08:50:00Z,78.0,29.6,12.9,84.5
2018-04-25T08:51:00Z,78.0,29.3,12.6,84.4
2018-04-25T08:52:00Z,78.0,29.2,12.6,84.5
2018-04-25T08:53:00Z,78.0,29.2,12.6,84.4
2018-04-25T08:54:00Z,78.0,29.2,12.5,84.5
2018-04-25T08:55:00Z,78.0,29.1,12.6,84.4
2018-04-25T08:56:00Z,78.0,29.1,12.6,84.4
2018-04-25T08:57:00Z,78.0,28.9,12.5,84.2
2018-04-25T08:58:00Z,78.0,28.9,12.6,84.1
2018-04-25T08:59:00Z,78.0,28.8,12.6,84.0
2018-04-25T09:00:00Z,78.0,28.8,12.7,84.0
2018-04-25T09:01:00Z,78.0,28.9,12.7,84.0
2018-04-25T09:02:00Z,78.0,28.9,12.9,84.1
2018-04-25T09:03:00Z,78.0,28.8,13.0,84.2
2018-04-25T09:04:00Z,78.0,28.8,13.1,84.3
2018-04-25T09:05:00Z,78.0,28.7,13.2,84.3
2018-04-25T09:06:00Z,78.0,28.6,13.1,84.2
2018-04-25T09:07:00Z,78.0,28.8,13.4,84.2
2018-04-25T09:08:00Z,78.0,28.9,13.5,84.5
2018-04-25T09:09:00Z,78.0,28.9,13.5,84.7
2018-04-25T09:10:00Z,79.0,28.8,13.6,84.9
2018-04-25T09:11:00Z,79.0,28.8,13.7,84.9
2018-04-25T09:12:00Z,79.0,29.0,13.8,85.1
2018-04-25T09:13:00Z,79.0,29.0,13.6,85.1
2018-04-25T09:14:00Z,79.0,29.1,13.6,85.2
2018-04-25T09:15:00Z,79.0,29.1,13.5,85.1
2018-04-25T09:16:00Z,79.0,29.1,13.6,85.2
2018-04-25T09:17:00Z,79.0,29.1,13.6,85.2
2018-04-25T09:18:00Z,79.0,29.2,13.7,85.3
2018-04-25T09:19:00Z,79.0,29.1,13.7,85.3
2018-04-25T09:20:00Z,79.0,29.0,13.8,85.4
2018-04-25T09:21:00Z,79.0,29.1,14.0,85.7
2018-04-25T09:22:00Z,80.0,29.1,14.1,85.9
2018-04-25T09:23:00Z,80.0,29.0,14.1,85.9
2018-04-25T09:24:00Z,80.0,28.8,14.1,86.1
2018-04-25T09:25:00Z,80.0,28.8,14.2,86.2
2018-04-25T09:26:00Z,80.0,28.8,14.2,86.4